Location: Unspecified
(0.0000°N, 0.0000°E)
Time: 08:45:42
(UTC+00:00)

HULIANGWANG DIGUI-08 - Visible Passes

Search period start: 25 January 2026 00:00
Search period end: 04 February 2026 00:00
Orbit: 1167 x 1169 km, 86.5° (Epoch: 24 January)

Date Brightness Start Highest point End Pass type
(mag) Time Alt. Az. Time Alt. Az. Time Alt. Az.
25 Jan ? 05:09:55 10° NNE 05:16:42 47° E 05:23:29 10° SSE visible
25 Jan ? 18:47:28 10° SW 18:52:34 21° W 18:57:40 10° NW visible
26 Jan ? 04:44:55 10° NNE 04:50:59 30° E 04:57:01 10° SSE visible
27 Jan ? 04:20:34 10° NE 04:25:16 19° E 04:29:57 10° SE visible
28 Jan ? 03:58:10 10° E 03:59:33 11° E 04:00:55 10° ESE visible
28 Jan ? 05:41:09 10° N 05:48:12 65° W 05:55:17 10° S visible
29 Jan ? 05:15:20 10° N 05:22:28 83° E 05:29:39 10° S visible
29 Jan ? 18:57:50 10° W 18:58:20 10° W 18:58:51 10° W visible
30 Jan ? 04:49:50 10° NNE 04:56:45 54° E 05:03:41 10° SSE visible
30 Jan ? 18:28:04 10° SW 18:32:38 18° W 18:37:11 10° NW visible
31 Jan ? 04:24:42 10° NNE 04:31:02 34° E 04:37:21 10° SSE visible
1 Feb ? 04:00:06 10° NE 04:05:19 22° E 04:10:32 10° SE visible
1 Feb ? 05:47:35 10° NNW 05:53:59 36° W 06:00:26 10° SSW visible
2 Feb ? 03:36:37 10° ENE 03:39:36 13° E 03:42:34 10° ESE visible
2 Feb ? 05:21:18 10° NNW 05:28:15 57° W 05:35:15 10° SSW visible
3 Feb ? 04:55:23 10° N 05:02:31 87° W 05:09:43 10° S visible
